Time,TemperatureF,DewpointF,PressureIn,WindDirection,WindDirectionDegrees,WindSpeedMPH,WindSpeedGustMPH,Humidity,HourlyPrecipIn,Conditions,Clouds,dailyrainin,SoftwareType,DateUTC
2013-01-11 00:27:00,55.3,52.1,30.33,East,99,0.0,4.0,89,0.00,,---,0.00,VWS V13.01,2013-01-11 05:27:00,
2013-01-11 00:57:00,54.3,51.4,30.33,NNE,28,0.0,2.0,90,0.00,,---,0.00,VWS V13.01,2013-01-11 05:57:00,
2013-01-11 01:27:00,52.8,50.2,30.32,NNE,13,0.0,4.0,91,0.00,,---,0.00,VWS V13.01,2013-01-11 06:27:00,
2013-01-11 01:57:00,52.1,49.8,30.31,North,351,0.0,3.0,92,0.00,,---,0.00,VWS V13.01,2013-01-11 06:57:00,
2013-01-11 02:27:00,51.4,49.2,30.30,North,4,0.0,4.0,92,0.00,,---,0.00,VWS V13.01,2013-01-11 07:27:00,
2013-01-11 02:57:00,51.0,48.8,30.29,ESE,113,0.0,3.0,92,0.00,,---,0.00,VWS V13.01,2013-01-11 07:57:00,
2013-01-11 03:27:00,50.4,48.2,30.28,NNE,30,1.0,3.0,92,0.00,,---,0.00,VWS V13.01,2013-01-11 08:27:00,
2013-01-11 03:57:00,49.7,47.8,30.26,SE,128,0.0,4.0,93,0.00,,---,0.00,VWS V13.01,2013-01-11 08:57:00,
2013-01-11 04:27:00,49.4,47.5,30.25,NNW,328,0.0,3.0,93,0.00,,---,0.00,VWS V13.01,2013-01-11 09:27:00,
2013-01-11 04:57:00,49.2,47.5,30.27,NNW,346,0.0,3.0,94,0.00,,---,0.00,VWS V13.01,2013-01-11 09:57:00,
2013-01-11 05:27:00,49.2,47.5,30.26,North,356,1.0,2.0,94,0.00,,---,0.00,VWS V13.01,2013-01-11 10:27:00,
2013-01-11 05:57:00,48.9,47.2,30.24,North,356,0.0,3.0,94,0.00,,---,0.00,VWS V13.01,2013-01-11 10:57:00,
2013-01-11 06:27:00,48.8,47.2,30.24,North,357,0.0,2.0,94,0.00,,---,0.00,VWS V13.01,2013-01-11 11:27:00,
2013-01-11 06:57:00,48.7,47.3,30.25,NNW,348,0.0,2.0,95,0.00,,---,0.00,VWS V13.01,2013-01-11 11:57:00,
2013-01-11 07:27:00,48.7,47.3,30.25,SSE,168,0.0,4.0,95,0.00,,---,0.00,VWS V13.01,2013-01-11 12:27:00,
2013-01-11 07:57:00,48.9,47.5,30.25,North,1,0.0,6.0,95,0.00,,---,0.00,VWS V13.01,2013-01-11 12:57:00,
2013-01-11 08:27:00,49.0,47.6,30.26,North,359,0.0,2.0,95,0.00,,---,0.00,VWS V13.01,2013-01-11 13:27:00,
2013-01-11 08:57:00,49.0,47.6,30.26,North,357,2.0,3.0,95,0.00,,---,0.00,VWS V13.01,2013-01-11 13:57:00,
2013-01-11 09:27:00,49.1,47.7,30.27,SSW,203,0.0,5.0,95,0.00,,---,0.00,VWS V13.01,2013-01-11 14:27:00,
2013-01-11 09:57:00,49.0,47.6,30.27,NNW,328,0.0,3.0,95,0.00,,---,0.00,VWS V13.01,2013-01-11 14:57:00,
2013-01-11 10:27:00,49.0,47.6,30.26,North,5,0.0,3.0,95,0.00,,---,0.00,VWS V13.01,2013-01-11 15:27:00,
2013-01-11 10:57:00,49.0,47.6,30.26,North,357,4.0,4.0,95,0.00,,---,0.00,VWS V13.01,2013-01-11 15:57:00,
2013-01-11 11:27:00,49.0,47.6,30.24,NE,41,1.0,5.0,95,0.00,,---,0.00,VWS V13.01,2013-01-11 16:27:00,
2013-01-11 11:57:00,48.9,47.5,30.22,NE,42,0.0,2.0,95,0.00,,---,0.00,VWS V13.01,2013-01-11 16:57:00,
2013-01-11 12:27:00,49.0,47.6,30.22,NNE,26,0.0,3.0,95,0.00,,---,0.00,VWS V13.01,2013-01-11 17:27:00,
2013-01-11 12:57:00,48.9,47.5,30.20,NNE,29,0.0,4.0,95,0.00,,---,0.00,VWS V13.01,2013-01-11 17:57:00,
2013-01-11 13:27:00,49.0,47.6,30.19,North,353,0.0,4.0,95,0.00,,---,0.00,VWS V13.01,2013-01-11 18:27:00,
2013-01-11 13:57:00,49.2,47.8,30.18,NNW,338,0.0,5.0,95,0.00,,---,0.00,VWS V13.01,2013-01-11 18:57:00,
2013-01-11 14:27:00,49.3,47.9,30.18,NNW,338,0.0,2.0,95,0.00,,---,0.00,VWS V13.01,2013-01-11 19:27:00,
2013-01-11 14:57:00,49.4,48.0,30.19,NNW,348,0.0,3.0,95,0.00,,---,0.00,VWS V13.01,2013-01-11 19:57:00,
2013-01-11 15:27:00,49.4,48.0,30.19,NNW,348,0.0,3.0,95,0.00,,---,0.00,VWS V13.01,2013-01-11 20:27:00,
2013-01-11 15:57:00,49.4,48.0,30.17,North,355,0.0,3.0,95,0.00,,---,0.00,VWS V13.01,2013-01-11 20:57:00,
2013-01-11 16:27:00,49.5,48.1,30.16,North,355,0.0,2.0,95,0.00,,---,0.00,VWS V13.01,2013-01-11 21:27:00,
2013-01-11 16:57:00,49.5,48.1,30.17,North,1,0.0,3.0,95,0.00,,---,0.00,VWS V13.01,2013-01-11 21:57:00,
2013-01-11 17:27:00,49.5,48.1,30.17,North,358,0.0,3.0,95,0.00,,---,0.00,VWS V13.01,2013-01-11 22:27:00,
2013-01-11 17:57:00,49.6,48.2,30.17,North,359,0.0,0.0,95,0.00,,---,0.00,VWS V13.01,2013-01-11 22:57:00,
2013-01-11 18:27:00,49.7,48.3,30.18,North,359,0.0,2.0,95,0.00,,---,0.00,VWS V13.01,2013-01-11 23:27:00,
2013-01-11 18:57:00,49.7,48.3,30.19,North,359,0.0,2.0,95,0.00,,---,0.00,VWS V13.01,2013-01-11 23:57:00,
2013-01-11 19:27:00,49.7,48.3,30.19,North,359,0.0,1.0,95,0.00,,---,0.00,VWS V13.01,2013-01-12 00:27:00,
2013-01-11 19:57:00,49.7,48.3,30.20,North,359,1.0,2.0,95,0.00,,---,0.00,VWS V13.01,2013-01-12 00:57:00,
2013-01-11 20:27:00,49.7,48.6,30.18,North,359,0.0,2.0,96,0.00,,---,0.00,VWS V13.01,2013-01-12 01:27:00,
2013-01-11 20:57:00,49.9,48.5,30.18,North,359,0.0,2.0,95,0.00,,---,0.00,VWS V13.01,2013-01-12 01:57:00,
2013-01-11 21:27:00,50.1,48.7,30.19,WNW,282,0.0,3.0,95,0.00,,---,0.00,VWS V13.01,2013-01-12 02:27:00,
2013-01-11 21:57:00,50.0,48.6,30.19,WNW,282,0.0,2.0,95,0.00,,---,0.00,VWS V13.01,2013-01-12 02:57:00,
2013-01-11 22:27:00,50.2,49.1,30.19,WNW,282,0.0,1.0,96,0.00,,---,0.00,VWS V13.01,2013-01-12 03:27:00,
2013-01-11 22:57:00,50.1,49.0,30.19,WNW,282,0.0,2.0,96,0.00,,---,0.00,VWS V13.01,2013-01-12 03:57:00,
2013-01-11 23:27:00,50.3,49.2,30.19,WNW,282,0.0,2.0,96,0.00,,---,0.00,VWS V13.01,2013-01-12 04:27:00,
2013-01-11 23:57:00,50.4,49.3,30.18,WNW,282,0.0,0.0,96,0.00,,---,0.00,VWS V13.01,2013-01-12 04:57:00,